Hourly Data Report for October 02, 2017

All times are specified in Local Standard Time (LST). Add 1 hour to adjust for Daylight Saving Time where and when it is observed.

SPRAGUE
MANITOBA

49°01'25.000" N
95°35'54.009" W
328.80 m
5022759
71449
WSU

Download Data

Hourly Data (October 2017)
Hourly Data Report for October 2, 2017
Temp Definition
°C
Dew Point Temp Definition
°C
Rel Hum Definition
%
Wind Dir Definition
10's deg

Wind Spd Definition
km/h
Visibility Definition
km
Stn Press Definition
kPa
Hmdx Definition


Wind Chill Definition


Weather Definition


TIME
00:00 14.5 13.4 93 15 7   96.62     LegendNANA
01:00 13.7 12.4 92 15 8   96.61     LegendNANA
02:00 13.5 12.0 91 15 8   96.58     LegendNANA
03:00 13.6 11.5 87 17 12   96.59     LegendNANA
04:00 13.1 11.3 89 16 8   96.53     LegendNANA
05:00 13.3 11.3 88 17 7   96.58     LegendNANA
06:00 13.2 11.5 89 18 10   96.64     LegendNANA
07:00 12.7 11.9 95 17 7   96.68     LegendNANA
08:00 12.9 12.1 95 17 9   96.72     LegendNANA
09:00 13.0 12.1 95 18 9   96.81     LegendNANA
10:00 13.7 12.7 94 17 7   96.76     LegendNANA
11:00 14.6 12.8 89 20 8   96.87     LegendNANA
12:00 14.4 10.5 77 23 13   96.94     LegendNANA
13:00 15.2 10.3 73 24 12   96.96     LegendNANA
14:00 15.2 9.2 67 23 14   97.02     LegendNANA
15:00 15.2 9.1 67 23 12   97.06     LegendNANA
16:00 14.4 8.4 67 24 14   97.09     LegendNANA
17:00 13.4 8.2 70 22 6   97.21     LegendNANA
18:00 12.2 8.4 77 18 5   97.29     LegendNANA
19:00 11.4 8.4 82 17 5   97.36     LegendNANA
20:00 10.4 7.9 85 18 5   97.41     LegendNANA
21:00 9.6 7.6 87 17 5   97.43     LegendNANA
22:00 9.9 8.2 89 20 5   97.44     LegendNANA
23:00 9.0 7.4 90 21 4   97.46     LegendNANA

Notes on Data Quality.

Legend

  • E = Estimated
  • M = Missing
  • NA = Not Available
  • ‡ = Partner data that is not subject to review by the National Climate Archives
Date modified: